Other Public Products
Issued by NWS Grand Forks, ND

Home | Current Version | Previous Version | Graphics & Text | Print | Product List | Glossary On
Versions: 1 2 3 4 5 6 7 8 9 10 11 12 13 14 15 16 17 18 19 20 21 22 23 24 25 26 27 28 29 30 31 32 33 34 35 36 37 38 39 40 41 42 43 44 45 46 47 48 49 50
000
FPUS83 KFGF 020210
OPUFGF
PRAIRIE TO PINES WEATHER ROUNDUP
NATIONAL WEATHER SERVICE EASTERN NORTH DAKOTA/GRAND FORKS ND
900 PM CDT WED JUL 01 2015

 **SATELLITE DATA USED TO AUGMENT SKY COVER AT AUTOMATED STATIONS**
 *****  WEATHER ACROSS EASTERN NORTH DAKOTA  *****

CITY           SKY/WX    TMP DP  RH WIND       PRES   REMARKS
GRAND FORKS    PTCLDY    70  62  76 S6        29.93R HAZE
GRAND FORKS AF PTCLDY    70  62  76 S6        29.94R
GRAND CITY NWS   N/A     72 N/A N/A S5          N/A
BUXTON         NOT AVBL
DEVILS LAKE    MOCLDY    72  61  68 SE5       29.92F
FARGO          CLEAR     69  56  62 S6        29.95R
WAHPETON ARPT  CLEAR     64  59  82 SE5       29.97R
$$

 *****  WEATHER ACROSS CENTRAL AND WESTERN NORTH DAKOTA  *****

CITY           SKY/WX    TMP DP  RH WIND       PRES   REMARKS
JAMESTOWN      CLEAR     71  64  78 SE6       29.95R
BISMARCK       MOCLDY    73  67  81 SE5       29.94S
MINOT          MOCLDY    68  64  87 NE5       29.93S FOG
MINOT AFB      MOCLDY    71  70  99 NE5       29.92F
GARRISON         N/A     72  64  76 CALM      29.94S
WILLISTON      CLOUDY    73  58  59 NW3       29.96S HAZE
DICKINSON      CLOUDY    70  62  76 SE3       29.95F
HETTINGER      MOCLDY    70  62  76 N5        30.00R
$$

 *****  OTHER OBSERVATIONS NORTHEAST NORTH DAKOTA  *****

CITY           SKY/WX    TMP DP  RH WIND       PRES   REMARKS
WALHALLA       FAIR      73  63  68 MISG      29.92S
LANGDON        FAIR      68  63  83 S3        29.95F
CAVALIER       FAIR      73  63  68 CALM      29.92S
GRAFTON        FAIR      70  63  78 S6        29.93S
CANDO          FAIR      68  61  77 SE6       29.94S
FORT TOTTEN      N/A     71  60  67 SE3       29.95
ROLLA          FAIR      68  66  94 SW5       29.96S
RUGBY          NOT AVBL
 ***** THE ABOVE OBSERVATIONS ARE NON NWS ARE NOT QUALITY
        CONTROLLED AND MAY MIS-REPORT RAIN FOR SNOW...
$$

 *****  OTHER OBSERVATIONS SOUTHEAST NORTH DAKOTA *****

CITY           SKY/WX    TMP DP  RH WIND       PRES   REMARKS
COOPERSTOWN    NOT AVBL
VALLEY CITY    FAIR      70  63  78 S9        29.96S
OAKES            N/A     68  66  94 SE3       29.95S
GWINNER        FAIR      72  63  73 SE6       29.96S
SHEYENNE NWR     N/A     68  58  70 S3        29.95S
BUFFALO        NOT AVBL
WYNDMERE       NOT AVBL
 ***** THE ABOVE OBSERVATIONS ARE NON NWS ARE NOT QUALITY
       CONTROLLED AND MAY MIS-REPORT RAIN FOR SNOW...
$$

  *****  WEATHER ACROSS NORTHERN MINNESOTA  *****

CITY           SKY/WX    TMP DP  RH WIND       PRES   REMARKS
FLAG ISLAND    CLOUDY    72  63  73 SW6       29.93S
WARROAD        MOCLDY    72  63  73 CALM      29.95S
ROSEAU         MOCLDY    70  63  78 CALM      29.94S
HALLOCK        NOT AVBL
THF RVR FALLS  PTCLDY    70  61  73 SW3       29.96R
HALSTAD        NOT AVBL
FOSSTON        CLEAR     66  59  77 CALM      29.98R
BAUDETTE       MOCLDY    70  61  73 CALM      29.95R
WASKISH        MOCLDY    66  61  82 CALM      29.96R
CROOKSTON      CLEAR     72  63  73 SW5       29.95S
$$
  *****  WEATHER ACROSS CENTRAL AND WEST MINNESOTA  *****

CITY           SKY/WX    TMP DP  RH WIND       PRES   REMARKS
BEMIDJI        CLOUDY    70  62  77 W3        29.97S
PARK RAPIDS    CLOUDY    70  57  63 SW6       29.98S
WADENA           N/A     66  55  68 CALM      29.99S
DETROIT LAKES  CLEAR     68  54  60 CALM      30.00S
MOORHEAD       CLEAR     70  55  60 S5        29.97R
FERGUS FALLS   CLEAR     68  57  68 SE3       29.98R
ELBOW LAKE     FAIR      65  57  73 SE5       29.98S
MORRIS MN      CLEAR     66  57  72 SE7       29.97S
STAPLES        CLEAR     66  55  68 S3        29.99S
WHEATON        CLEAR     63  55  77 SE6       29.99R
$$
  *****  WEATHER ELSEWHERE ACROSS MINNESOTA  *****

CITY           SKY/WX    TMP DP  RH WIND       PRES   REMARKS
DULUTH         PTCLDY    62  51  67 SE6       30.01R
INTRNTL FALLS  PTCLDY    64  58  80 SE3       29.96R
ELY            CLOUDY    66  54  63 S5        29.99S
CLOQUET        PTCLDY    64  55  72 E3        30.01R
BRAINERD       PTCLDY    67  56  67 S5        29.99S
HIBBING        MOCLDY    66  58  75 SE3       29.98S
ALEXANDRIA     CLEAR     66  55  67 S6        30.01S
SAINT CLOUD    CLEAR     66  55  67 SW3       30.00R
MINNEAPOLIS    PTCLDY    69  52  54 SW6       30.00R
$$

  *****  WEATHER ACROSS SOUTH DAKOTA  *****

CITY           SKY/WX    TMP DP  RH WIND       PRES   REMARKS
SIOUX FALLS    CLOUDY    70  56  61 E12       29.95R
BROOKINGS      MOCLDY    66  55  68 E10       29.98S
WATERTOWN      CLEAR     67  57  70 E8        29.96F
HURON          PTCLDY    70  66  87 SE6       29.92S
SISSETON         N/A     66  55  67 SE6       29.96R
ABERDEEN       CLEAR     72  64  76 E8        29.94R
MITCHELL       CLEAR     73  66  78 E7        29.94R
PIERRE         CLEAR     73  67  81 NE6       29.91R
MOBRIDGE       PTCLDY    76  68  76 E7        29.91S
RAPID CITY     CLEAR     75  63  66 E9        29.99S
$$

  *****  SOME WEATHER IN NEARBY STATES *****

CITY           SKY/WX    TMP DP  RH WIND       PRES   REMARKS
GLASGOW MT     PTCLDY    69  50  50 N15       29.99F
GREAT FALLS MT MOSUNNY   77  53  43 N15       30.10R HAZE
CHEYENNE WY    CLOUDY    62  56  80 S7        30.19F
SCOTTSBLUFF NE LGT RAIN  69  62  78 E20G32    30.01R
OMAHA NE       MOCLDY    75  67  76 E13       29.88S
DES MOINES IA  CLOUDY    71  57  61 E9        29.92S
DAVENPORT IA   CLOUDY    65  58  78 NE9       29.95F
CHICAGO IL     CLOUDY    56  50  80 NE8       30.00R
EAU CLAIRE WI  CLEAR     65  54  67 CALM      29.99S
LA CROSSE WI   CLEAR     64  54  69 CALM      29.99R
$$

  *****  SOME NATIONAL WEATHER *****

CITY           SKY/WX    TMP DP  RH WIND       PRES   REMARKS
LA GUARDIA NY  CLOUDY    80  57  45 W8        29.84R
RALEIGH NC     CLOUDY    80  71  74 SW12      29.95R
ATLANTA GA     CLOUDY    70  67  90 S6        30.06S
NEW ORLEANS LA LGT RAIN  77  74  90 SE6       30.07F
OKLAHOMA CITY  MOCLDY    85  70  60 S13       29.87R
ALBUQUERQUE NM MOCLDY    93  45  19 S12       30.02R
SALT LAKE CITY MOCLDY    93  50  23 W9        29.97S HX  90
LOS ANGELES CA PTSUNNY   68  63  84 SW10      29.91R
BOISE ID       MOSUNNY   97  39  13 NW6       29.89F HX  92
SEATTLE WA     SUNNY     88  55  32 N10       29.95F
$$

*** WEATHER ACROSS MANITOBA...SASKATCHEWAN AND ONTARIO ***
                ***ONTARIO***

CITY           SKY/WX    TMP DP  RH WIND       PRES   REMARKS
GERALDTON      PTCLDY    59  48  67 SW2       29.98R
THUNDER BAY    CLOUDY    57  54  88 E5        29.98
SIOUX LOOKOUT  CLOUDY    63  61  94 SE2       29.95S
TORONTO        MOCLDY    63  54  72 NW13      29.90R
BIG TROUT LK   CLEAR     61  48  63 CALM      29.91S
PICKLE LAKE    PTCLDY    61  54  77 S8        29.92S
DRYDEN         PTCLDY    70  57  64 CALM      29.95S
KENORA         CLOUDY    70  59  68 SW5       29.95S
$$
                *** MANITOBA***

CITY           SKY/WX    TMP DP  RH WIND       PRES   REMARKS
BRANDON        CLOUDY    68  64  88 W6        29.92S
DAUPHIN        CLEAR     70  61  73 SW6       29.89S
ISLAND LAKE    PTCLDY    72  54  53 SE2       29.88S
PILOT MOUND      N/A     66  61  82 S5          N/A
THE PAS        CLOUDY    68  61  77 CALM      29.89S SMOKE
THOMPSON       MOCLDY    70  55  60 VRB2      29.87R
WINNIPEG       CLOUDY    70  63  78 S6        29.92S
LYNN LAKE      LGT RAIN  66  54  63 W6        29.90R
GILLAM         MOCLDY    70  50  49 S5        29.87S
$$
                ***SASKATCHEWAN***

CITY           SKY/WX    TMP DP  RH WIND       PRES   REMARKS
ESTEVAN        CLOUDY    70  64  83 N3        29.95F SMOKE
KINDERSLEY     LGT RAIN  68  64  88 NW10      30.01R
LLOYDMINSTER   CLOUDY    68  59  73 NW6       30.01S SMOKE
PRINCE ALBERT  MOSUNNY   72  63  73 W6        29.92S SMOKE
REGINA         MOCLDY    73  63  68 N3        29.95S
YORKTON        PTCLDY    68  63  83 W6        29.91S


USA.gov is the U.S. government's official web portal to all federal, state and local government web resources and services.